Change the Weather History Date:

Sunday, March 17, 2013

  Actual Average Record
Temperature  
Mean Temperature 33 °F 40 °F  
Max Temperature 36 °F 50 °F 77 °F (2012)
Min Temperature 29 °F 30 °F 1 °F (1900)
Degree Days  
Heating Degree Days 32 25  
Month to date heating degree days 488 476  
Since 1 July heating degree days 4600 4733  
Cooling Degree Days 0 0  
Month to date cooling degree days 0 0  
Year to date cooling degree days 0 0  
Moisture  
Dew Point 22 °F    
Average Humidity 71    
Maximum Humidity 85    
Minimum Humidity 56    
Precipitation  
Precipitation 0.00 in 0.10 in 1.78 in (1936)
Month to date precipitation 0.68 1.55  
Year to date precipitation 5.25 6.64  
Snow  
Snow 0.00 in 0.30 in 3.30 in (1892)
Month to date snowfall 7.7 5.1  
Since 1 July snowfall 49.9 37.9  
Snow Depth 0.00 in    
Sea Level Pressure  
Sea Level Pressure 30.15 in    
Wind  
Wind Speed 5 mph (NNE)    
Max Wind Speed 13 mph    
Max Gust Speed 17 mph    
Visibility 10 miles    
Events      
T = Trace of Precipitation, MM = Missing Value Source: NWS Daily Summary

Daily Weather History Graph

Daily Weather History Graph

Search for Another Location

Airport or City:

Trip Planner

Search our weather history database for the weather conditions in past years. The results will help you decide how hot, cold, wet, or windy it might be!

Date:

Astronomy

Mar. 17, 2013 Rise Set
Actual Time 7:28 AM EDT 7:30 PM EDT
Civil Twilight 7:01 AM EDT 7:57 PM EDT
Nautical Twilight 6:29 AM EDT 8:29 PM EDT
Astronomical Twilight 5:57 AM EDT 9:01 PM EDT
Moon 10:39 AM EDT (3/17) 12:37 AM EDT (3/17)
Length of Visible Light 12h 55m
Length of Day
12h 01m
Waxing Crescent, 31% of the Moon is Illuminated
Mar 17
Waxing Crescent
Mar 19
First Quarter
Mar 27
Full
Apr 3
Last Quarter
Apr 10
New

Hourly Weather History & Observations

Time (EDT) Temp. Windchill Dew Point Humidity Pressure Visibility Wind Dir Wind Speed Gust Speed Precip Events Conditions
12:51 AM 32.0 °F 25.6 °F 27.0 °F 82% 30.02 in 8.0 mi WNW 6.9 mph - N/A   Overcast
1:51 AM 30.9 °F 22.2 °F 26.1 °F 82% 30.03 in 10.0 mi NW 10.4 mph - N/A   Overcast
2:51 AM 30.0 °F 20.5 °F 25.0 °F 82% 30.06 in 10.0 mi NW 11.5 mph - N/A   Overcast
3:51 AM 28.9 °F 19.2 °F 21.9 °F 75% 30.07 in 10.0 mi North 11.5 mph - N/A   Overcast
4:12 AM 28.4 °F 19.1 °F 21.2 °F 74% 30.02 in 10.0 mi NNW 10.4 mph - N/A   Overcast
4:42 AM 28.4 °F 21.2 °F 21.2 °F 74% 30.02 in 10.0 mi North 6.9 mph - N/A   Overcast
4:51 AM 28.9 °F 22.8 °F 21.0 °F 72% 30.08 in 10.0 mi North 5.8 mph - N/A   Overcast
5:51 AM 28.9 °F 23.9 °F 21.0 °F 72% 30.10 in 10.0 mi NNE 4.6 mph - N/A   Overcast
6:51 AM 28.9 °F - 21.0 °F 72% 30.12 in 10.0 mi Calm Calm - N/A   Overcast
7:28 AM 28.4 °F - 21.2 °F 74% 30.08 in 10.0 mi Calm Calm - N/A   Overcast
7:51 AM 28.9 °F - 21.0 °F 72% 30.15 in 10.0 mi Calm Calm - N/A   Overcast
8:51 AM 28.9 °F - 21.9 °F 75% 30.18 in 10.0 mi Calm Calm - N/A   Overcast
9:51 AM 30.0 °F - 19.9 °F 66% 30.20 in 10.0 mi Calm Calm - N/A   Overcast
10:51 AM 30.9 °F - 21.0 °F 67% 30.22 in 10.0 mi Calm Calm - N/A   Overcast
11:51 AM 32.0 °F - 21.9 °F 66% 30.22 in 10.0 mi Calm Calm - N/A   Overcast
12:51 PM 33.1 °F 27.7 °F 21.0 °F 61% 30.21 in 10.0 mi NE 5.8 mph - N/A   Overcast
1:51 PM 35.1 °F 31.0 °F 21.0 °F 57% 30.21 in 10.0 mi Variable 4.6 mph - N/A   Overcast
2:51 PM 35.6 °F - 21.2 °F 56% 30.14 in 10.0 mi Calm Calm - N/A   Overcast
3:51 PM 36.0 °F - 21.0 °F 55% 30.20 in 10.0 mi Calm Calm - N/A   Overcast
4:51 PM 34.0 °F 26.0 °F 24.1 °F 67% 30.21 in 10.0 mi North 10.4 mph - N/A   Overcast
5:51 PM 35.1 °F 27.9 °F 23.0 °F 61% 30.20 in 10.0 mi NNE 9.2 mph - N/A   Overcast
6:51 PM 34.0 °F 28.0 °F 21.9 °F 61% 30.22 in 10.0 mi NE 6.9 mph - N/A   Overcast
7:51 PM 33.1 °F 25.5 °F 21.9 °F 64% 30.22 in 10.0 mi NE 9.2 mph - N/A   Overcast
8:51 PM 32.0 °F 26.4 °F 21.9 °F 66% 30.22 in 10.0 mi NE 5.8 mph - N/A   Overcast
9:51 PM 30.9 °F 24.3 °F 21.9 °F 69% 30.22 in 10.0 mi ENE 6.9 mph - N/A   Mostly Cloudy
10:51 PM 30.0 °F 23.2 °F 21.0 °F 69% 30.22 in 10.0 mi ENE 6.9 mph - N/A   Mostly Cloudy
11:51 PM 30.0 °F 22.4 °F 21.0 °F 69% 30.20 in 10.0 mi ENE 8.1 mph - N/A   Mostly Cloudy